"2010-02-07 00:00:00",1659159,3.324,318.6,7.932,1.155,4.905,101.1877,2.33,3.576,56.26,0,109.9,13.5,3.09,280.6
"2010-02-07 00:00:30",1659160,3.287,315,5.631,1.184,5.346,101.1795,2.309,3.68,56.49,0,109.9,13.5,3.07,277.0
"2010-02-07 00:01:00",1659161,3.697,315.8,4.912,1.006,5.463,101.1618,2.264,3.614,56.48,0,109.9,13.5,3.02,277.8
"2010-02-07 00:01:30",1659162,2.336,308.1,6.912,1.131,2.948,101.1626,2.266,3.46,56.4,0,109.9,13.5,3.03,270.1
"2010-02-07 00:02:00",1659163,1.737,309.9,6.629,0.652,2.275,101.1528,2.241,3.475,56.54,0,109.9,13.5,3.00,271.9
"2010-02-07 00:02:30",1659164,2.085,307.3,5.727,1.007,1.964,101.1373,2.201,3.319,56.6,0,109.9,13.5,2.96,269.3
"2010-02-07 00:03:00",1659165,2.302,309.4,5.143,1.123,3.346,101.1238,2.167,3.444,57.05,0,109.9,13.51,2.93,271.4
"2010-02-07 00:03:30",1659166,2.713,314.3,7.697,1.265,4.24,101.1128,2.139,3.444,57.24,0,109.9,13.51,2.90,276.3
"2010-02-07 00:04:00",1659167,3.191,314.3,6.979,1.162,5.413,101.1024,2.112,3.486,57.34,0,109.9,13.51,2.87,276.3
"2010-02-07 00:04:30",1659168,3.04,313.1,7.25,1.141,5.357,101.0829,2.062,3.416,57.42,0,109.9,13.51,2.82,275.1
"2010-02-07 00:05:00",1659169,1.781,307.4,5.772,1.113,2.569,101.0795,2.054,3.172,57.3,0,109.9,13.51,2.81,269.4
"2010-02-07 00:05:30",1659170,1.037,311.6,1.639,0.103,1.098,101.0538,1.988,3.134,57.41,0,109.9,13.54,2.75,273.6
"2010-02-07 00:06:00",1659171,1.554,315.4,4.133,0.983,2.01,101.0501,1.979,3.118,57.51,0,109.9,13.51,2.74,277.4
"2010-02-07 00:06:30",1659172,1.836,321.7,4.061,1.184,3.555,101.0275,1.921,3.221,57.81,0,109.9,13.51,2.68,283.7
"2010-02-07 00:07:00",1659173,0.726,320.3,4.434,0.078,1.733,101.0176,1.896,3.099,57.83,0,109.9,13.55,2.65,282.3
"2010-02-07 00:07:30",1659174,2.38,330.3,8.78,1.183,4.874,101.0123,1.882,3.238,58.06,0,109.8,13.51,2.64,292.3
"2010-02-07 00:08:00",1659175,2.419,328,6.836,1.148,4.887,100.9896,1.824,3.265,58.18,0,109.8,13.51,2.58,290.0
"2010-02-07 00:08:30",1659176,1.767,336.6,5.945,1.322,4.042,100.9837,1.809,3.193,58.32,0,109.8,13.51,2.57,298.6
"2010-02-07 00:09:00",1659177,1.188,329.8,7.506,0.987,1.987,100.9713,1.778,2.946,58.25,0,109.8,13.51,2.54,291.8
"2010-02-07 00:09:30",1659178,0.718,333.7,3.07,0.029,1.116,100.9498,1.723,2.918,58.32,0,109.8,13.54,2.48,295.7
"2010-02-07 00:10:00",1659179,1.709,337.8,7.969,1.232,2.95,100.9498,1.723,2.911,58.45,0,109.8,13.51,2.48,299.8
"2010-02-07 00:10:30",1659180,1.788,342.8,8.68,1.222,3.575,100.9357,1.687,2.998,58.67,0,109.8,13.51,2.44,304.8
"2010-02-07 00:11:00",1659181,0.729,345.9,7.334,0.131,1.765,100.9159,1.636,2.808,58.63,0,109.8,13.55,2.39,307.9
"2010-02-07 00:11:30",1659182,2.182,352.1,7.527,1.211,4.734,100.9153,1.635,3.006,58.92,0,109.8,13.52,2.39,314.1
"2010-02-07 00:12:00",1659183,2.904,357.3,5.684,0.675,6.7,100.8935,1.579,3.09,59.11,0,109.8,13.52,2.34,319.3
"2010-02-07 00:12:30",1659184,1.764,354.9,7.636,1.289,3.877,100.8828,1.552,2.833,58.99,0,109.8,13.52,2.31,316.9
"2010-02-07 00:13:00",1659185,0.551,342.9,3.162,0.078,1.263,100.8797,1.544,2.7,59.02,0,109.8,13.56,2.30,304.9
"2010-02-07 00:13:30",1659186,0.905,349.9,6.721,0.948,2.197,100.8591,1.491,2.792,59.24,0,109.8,13.53,2.25,311.9
"2010-02-07 00:14:00",1659187,1.094,355.8,5.492,0.895,2.115,100.8594,1.492,2.752,59.36,0,109.8,13.52,2.25,317.8
"2010-02-07 00:14:30",1659188,1.555,352.2,11.99,1.263,3.19,100.8464,1.459,2.668,59.46,0,109.8,13.53,2.22,314.2
"2010-02-07 00:15:00",1659189,0.478,329.1,4.577,0.093,1.807,100.8278,1.411,2.677,59.63,0,109.8,13.57,2.17,291.1
"2010-02-07 00:15:30",1659190,1.655,334.4,6.655,1.269,3.325,100.8349,1.43,2.646,59.72,0,109.8,13.53,2.19,296.4
"2010-02-07 00:16:00",1659191,2.234,334.8,7.58,1.069,5.12,100.8239,1.402,2.792,59.98,0,109.8,13.53,2.16,296.8
"2010-02-07 00:16:30",1659192,1.82,348.8,17.86,1.186,4.837,100.8067,1.358,2.694,59.98,0,109.8,13.53,2.11,310.8
"2010-02-07 00:17:00",1659193,0.318,7.809,7.288,0.114,1.78,100.8095,1.365,2.493,59.94,0,109.8,13.57,2.12,329.8
"2010-02-07 00:17:30",1659194,0.644,359.5,8.78,0.874,2.032,100.7867,1.307,2.46,60.03,0,109.8,13.53,2.06,321.5
"2010-02-07 00:18:00",1659195,0.873,343.7,12.46,1.013,2.411,100.7804,1.291,2.556,60.31,0,109.7,13.54,2.05,305.7
"2010-02-07 00:18:30",1659196,1.134,320.7,5.019,0.982,1.894,100.7689,1.261,2.405,60.59,0,109.7,13.54,2.02,282.7
"2010-02-07 00:19:00",1659197,0.581,314.4,6.779,0.063,1.226,100.7465,1.204,2.36,61.07,0,109.7,13.57,1.96,276.4
"2010-02-07 00:19:30",1659198,0.741,301.7,9.01,0.611,2.152,100.7428,1.195,2.452,61.45,0,109.7,13.55,1.95,263.7
"2010-02-07 00:20:00",1659199,1.619,285.8,7.061,1.222,3.879,100.714,1.121,2.388,61.58,0,109.7,13.55,1.88,247.8
"2010-02-07 00:20:30",1659200,2.329,315.4,12.33,1.171,5.335,100.7126,1.118,2.522,61.85,0,109.7,13.55,1.87,277.4
"2010-02-07 00:21:00",1659201,2.277,322.9,6.748,1.28,4.879,100.7114,1.115,2.389,61.79,0,109.7,13.55,1.87,284.9
"2010-02-07 00:21:30",1659202,1.695,306.5,4.903,1.17,3.003,100.6939,1.07,2.242,61.7,0,109.7,13.55,1.83,268.5
"2010-02-07 00:22:00",1659203,0.986,285.1,10.23,0.825,2.384,100.6787,1.031,2.314,61.82,0,109.7,13.55,1.79,247.1
"2010-02-07 00:22:30",1659204,1.16,287.9,5.753,1.085,2.406,100.6787,1.031,2.151,61.8,0,109.7,13.55,1.79,249.9
"2010-02-07 00:23:00",1659205,0.59,295.6,3.199,0.073,1.199,100.6724,1.015,2.146,61.91,0,109.7,13.59,1.77,257.6
"2010-02-07 00:23:30",1659206,1.204,297.1,5.178,0.976,2.413,100.6473,0.951,2.141,62.03,0,109.7,13.55,1.71,259.1
"2010-02-07 00:24:00",1659207,1.557,291.6,5.846,1.22,3.723,100.6459,0.947,2.206,62.22,0,109.7,13.55,1.70,253.6
"2010-02-07 00:24:30",1659208,2.266,289.7,4.607,1.19,5.947,100.6464,0.949,2.363,62.51,0,109.7,13.55,1.70,251.7
"2010-02-07 00:25:00",1659209,1.549,286.9,4.78,1.195,4.103,100.625,0.894,2.218,62.43,0,109.7,13.55,1.65,248.9
"2010-02-07 00:25:30",1659210,0.6,285.1,2.319,0.047,1.219,100.6253,0.895,2.041,62.36,0,109.7,13.58,1.65,247.1
"2010-02-07 00:26:00",1659211,1.427,288.9,7.721,1.165,3.302,100.6307,0.909,2.149,62.58,0,109.7,13.55,1.66,250.9
"2010-02-07 00:26:30",1659212,0.661,281.5,3.979,0.452,2.28,100.6163,0.872,2.107,62.65,0,109.7,13.58,1.63,243.5
"2010-02-07 00:27:00",1659213,0.529,280.2,3.517,0.036,1.954,100.6059,0.845,1.963,62.62,0,109.7,13.58,1.60,242.2
"2010-02-07 00:27:30",1659214,0.526,287.5,4.989,0.02,1.712,100.6096,0.855,1.963,62.7,0,109.7,13.59,1.61,249.5
"2010-02-07 00:28:00",1659215,1.676,293.4,4.621,1.257,3.957,100.6056,0.845,2.033,62.83,0,109.7,13.55,1.60,255.4
"2010-02-07 00:28:30",1659216,2.382,301.9,6.157,1.076,6.075,100.5872,0.798,2.203,63.07,0,109.7,13.55,1.55,263.9
"2010-02-07 00:29:00",1659217,1.864,296.1,6.492,1.229,4.918,100.577,0.772,2.137,63.14,0,109.7,13.56,1.53,258.1
"2010-02-07 00:29:30",1659218,1.174,285.6,9.97,1.191,2.775,100.577,0.772,1.882,63,0,109.7,13.56,1.53,247.6
"2010-02-07 00:30:00",1659219,1.209,290.3,8.45,1.206,2.859,100.5621,0.734,1.986,63.2,0,109.7,13.56,1.49,252.3
"2010-02-07 00:30:30",1659220,1.149,274.9,9.75,1.173,3.743,100.5431,0.685,1.973,63.26,0,109.7,13.56,1.44,236.9
"2010-02-07 00:31:00",1659221,0.15,272.1,19.83,0.104,1.641,100.5431,0.685,1.808,63.22,0,109.7,13.6,1.44,234.1
"2010-02-07 00:31:30",1659222,-0.009,288.1,17.13,0.065,0.959,100.5423,0.683,1.786,63.26,0,109.7,13.6,1.44,250.1
"2010-02-07 00:32:00",1659223,-0.014,274.1,14.92,0.065,0.948,100.5253,0.64,1.768,63.29,0,109.7,13.6,1.39,236.1
"2010-02-07 00:32:30",1659224,0.525,245,9.55,0.802,1.967,100.5094,0.599,1.794,63.39,0,109.7,13.57,1.35,207.0
"2010-02-07 00:33:00",1659225,2.235,238.5,8.12,1.181,5.241,100.5092,0.599,1.928,63.62,0,109.6,13.58,1.35,200.5
"2010-02-07 00:33:30",1659226,2.15,241.5,10.93,1.059,5.657,100.4984,0.571,2.005,63.83,0,109.7,13.58,1.33,203.5
"2010-02-07 00:34:00",1659227,0.494,238.1,7.013,0.794,2.189,100.4752,0.512,1.81,63.75,0,109.6,13.58,1.27,200.1
"2010-02-07 00:34:30",1659228,0.534,247.4,25.93,0.965,2.231,100.4752,0.512,1.799,63.89,0,109.7,13.57,1.27,209.4
"2010-02-07 00:35:00",1659229,0.903,260.5,11.47,1.034,1.567,100.4732,0.507,1.714,63.95,0,109.6,13.58,1.26,222.5
"2010-02-07 00:35:30",1659230,1.46,287.9,9.33,1.179,2.816,100.4484,0.444,1.695,64.07,0,109.6,13.58,1.20,249.9
"2010-02-07 00:36:00",1659231,0.416,282.3,15.47,0.075,1.433,100.4461,0.438,1.62,64.12,0,109.6,13.61,1.19,244.3
"2010-02-07 00:36:30",1659232,0.269,276.9,14.01,0.15,1.834,100.4487,0.444,1.584,64.2,0,109.6,13.61,1.20,238.9
"2010-02-07 00:37:00",1659233,0.562,276.8,4.436,0.474,2.536,100.4385,0.419,1.592,64.34,0,109.6,13.58,1.17,238.8
"2010-02-07 00:37:30",1659234,2.094,281.2,6.401,1.165,6.305,100.423,0.379,1.786,64.64,0,109.6,13.58,1.13,243.2
"2010-02-07 00:38:00",1659235,2.294,247.9,16.03,1.15,6.191,100.4284,0.393,1.806,64.74,0,109.6,13.58,1.15,209.9
"2010-02-07 00:38:30",1659236,1,215.8,5.471,1.027,2.213,100.4295,0.396,1.568,64.81,0,109.6,13.58,1.15,177.8
"2010-02-07 00:39:00",1659237,1.116,221,6.036,1.099,2.687,100.427,0.389,1.628,65.13,0,109.6,13.58,1.14,183.0
"2010-02-07 00:39:30",1659238,1.144,224.3,6.076,0.936,2.112,100.412,0.351,1.567,65.15,0,109.6,13.58,1.10,186.3
"2010-02-07 00:40:00",1659239,1.249,231.3,7.662,1.128,2.846,100.4004,0.321,1.512,65.19,0,109.6,13.58,1.07,193.3
"2010-02-07 00:40:30",1659240,0.657,247.4,15.59,0.092,1.876,100.4038,0.33,1.452,65.27,0,109.6,13.61,1.08,209.4
"2010-02-07 00:41:00",1659241,1.275,269.3,6.327,0.946,3.039,100.4049,0.333,1.435,65.36,0,109.6,13.58,1.09,231.3
"2010-02-07 00:41:30",1659242,2.507,273.3,8.73,1.287,5.48,100.3998,0.32,1.645,65.64,0,109.6,13.58,1.07,235.3
"2010-02-07 00:42:00",1659243,2.355,272.6,6.803,1.253,5.359,100.378,0.264,1.703,65.8,0,109.6,13.58,1.02,234.6
"2010-02-07 00:42:30",1659244,2.907,272,8.78,1.039,5.367,100.3735,0.253,1.48,65.65,0,109.6,13.58,1.01,234.0
"2010-02-07 00:43:00",1659245,2.146,260,6.503,1.234,4.097,100.3735,0.253,1.561,65.81,0,109.6,13.58,1.01,222.0
"2010-02-07 00:43:30",1659246,1.212,250.2,2.925,0.056,1.755,100.3735,0.253,1.434,65.76,0,109.6,13.61,1.01,212.2
"2010-02-07 00:44:00",1659247,1.318,250.1,1.979,0.063,1.761,100.3735,0.253,1.342,65.73,0,109.6,13.61,1.01,212.1
"2010-02-07 00:44:30",1659248,1.71,251.4,2.58,0.669,2.102,100.367,0.236,1.341,65.85,0,109.6,13.58,0.99,213.4
"2010-02-07 00:45:00",1659249,2.796,256.7,7.15,1.237,4.844,100.356,0.208,1.556,66.21,0,109.6,13.58,0.96,218.7
"2010-02-07 00:45:30",1659250,3.594,255.8,4.926,0.838,6.531,100.348,0.188,1.586,66.34,0,109.6,13.58,0.94,217.8
"2010-02-07 00:46:00",1659251,2.647,247.6,5.453,1.23,4.53,100.3401,0.168,1.564,66.41,0,109.6,13.59,0.92,209.6
"2010-02-07 00:46:30",1659252,3.037,251.7,6.486,1.179,4.798,100.3396,0.166,1.461,66.43,0,109.6,13.59,0.92,213.7
"2010-02-07 00:47:00",1659253,1.586,238.7,0.965,0.453,1.606,100.3396,0.166,1.291,66.36,0,109.6,13.59,0.92,200.7
"2010-02-07 00:47:30",1659254,1.477,238.2,2.497,0.055,1.687,100.3396,0.166,1.273,66.43,0,109.6,13.62,0.92,200.2
"2010-02-07 00:48:00",1659255,1.73,241.4,5.6,0.718,2.828,100.3396,0.166,1.417,66.65,0,109.5,13.59,0.92,203.4
"2010-02-07 00:48:30",1659256,3.261,252.7,5.654,1.078,6.136,100.3396,0.166,1.468,66.8,0,109.7,13.59,0.92,214.7
"2010-02-07 00:49:00",1659257,3.063,265.4,6.753,1.169,6.021,100.3373,0.16,1.533,66.91,0,109.6,13.59,0.91,227.4
"2010-02-07 00:49:30",1659258,2.541,265.6,6.944,1.215,5.252,100.3348,0.154,1.5,66.94,0,109.6,13.59,0.91,227.6
"2010-02-07 00:50:00",1659259,2.059,263.6,5.183,1.127,3.308,100.3379,0.162,1.319,66.78,0,109.6,13.59,0.91,225.6
"2010-02-07 00:50:30",1659260,1.216,262.2,1.629,0.052,2.213,100.3379,0.162,1.266,66.72,0,109.6,13.62,0.91,224.2
"2010-02-07 00:51:00",1659261,1.292,264.4,1.433,0.03,2.115,100.3359,0.157,1.302,66.77,0,109.6,13.63,0.91,226.4
"2010-02-07 00:51:30",1659262,2.487,271.2,6.659,1.252,4.582,100.3357,0.156,1.334,66.81,0,109.6,13.6,0.91,233.2
"2010-02-07 00:52:00",1659263,1.903,267.5,6.053,1.091,3.878,100.3334,0.151,1.435,66.93,0,109.6,13.6,0.90,229.5
"2010-02-07 00:52:30",1659264,2.972,270.6,5.515,1.199,5.595,100.3348,0.154,1.496,66.95,0,109.5,13.6,0.91,232.6
"2010-02-07 00:53:00",1659265,2.764,268.9,5.472,1.078,5.393,100.3411,0.17,1.513,66.95,0,109.5,13.6,0.92,230.9
"2010-02-07 00:53:30",1659266,2.429,259.6,6.216,1.191,4.239,100.3524,0.199,1.357,66.87,0,109.6,13.6,0.95,221.6
"2010-02-07 00:54:00",1659267,0.929,249,0.703,0.044,1.422,100.3558,0.208,1.24,66.81,0,109.5,13.63,0.96,211.0
"2010-02-07 00:54:30",1659268,0.872,244.9,2.495,0.028,1.289,100.3567,0.21,1.24,66.78,0,109.5,13.63,0.96,206.9
"2010-02-07 00:55:00",1659269,2.089,250,7.695,1.279,3.836,100.355,0.205,1.365,66.9,0,109.5,13.6,0.96,212.0
"2010-02-07 00:55:30",1659270,1.63,250.8,5.863,1.125,3.655,100.355,0.205,1.392,66.91,0,109.5,13.6,0.96,212.8
"2010-02-07 00:56:00",1659271,2.435,250.9,6.345,1.211,5.194,100.3547,0.205,1.412,66.89,0,109.5,13.6,0.96,212.9
"2010-02-07 00:56:30",1659272,2.785,245.8,4.181,1.07,5.927,100.3541,0.203,1.534,67,0,109.5,13.6,0.96,207.8
"2010-02-07 00:57:00",1659273,1.927,245.1,6.608,1.25,4.348,100.3513,0.196,1.483,66.89,0,109.5,13.6,0.95,207.1
"2010-02-07 00:57:30",1659274,1.413,242.7,6.398,1.127,2.671,100.3465,0.184,1.254,66.6,0,109.6,13.6,0.94,204.7
"2010-02-07 00:58:00",1659275,0.576,240.4,2.469,0.076,1.034,100.3453,0.181,1.245,66.55,0,109.6,13.63,0.93,202.4
"2010-02-07 00:58:30",1659276,0.527,240.9,2.661,0.027,1.427,100.3445,0.179,1.31,66.58,0,109.6,13.63,0.93,202.9
"2010-02-07 00:59:00",1659277,1.827,248.8,5.302,1.256,3.227,100.3405,0.169,1.287,66.45,0,109.6,13.6,0.92,210.8
"2010-02-07 00:59:30",1659278,1.457,251.5,6.29,1.164,3.649,100.3408,0.169,1.428,66.52,0,109.5,13.6,0.92,213.5
"2010-02-07 01:00:00",1659279,1.588,252.6,6.98,1.231,3.37,100.3397,0.166,1.318,66.41,0,109.6,13.6,0.92,214.6
"2010-02-07 01:00:30",1659280,2.604,259.9,4.893,1.028,5.634,100.3402,0.168,1.536,66.69,0,109.5,13.6,0.92,221.9
"2010-02-07 01:01:00",1659281,1.902,260.1,4.665,1.183,4.013,100.362,0.224,1.366,66.64,0,109.5,13.6,0.98,222.1
"2010-02-07 01:01:30",1659282,0.652,271.8,11.77,0.081,1.556,100.3736,0.253,1.287,66.42,0,109.5,13.64,1.01,233.8
"2010-02-07 01:02:00",1659283,0.701,296.4,2.425,0.039,0.733,100.3745,0.255,1.267,65.82,0,109.5,13.64,1.01,258.4
"2010-02-07 01:02:30",1659284,0.805,300,3.561,0.624,1.795,100.3833,0.278,1.412,64.64,0,109.5,13.61,1.03,262.0
"2010-02-07 01:03:00",1659285,1.464,300.5,5.139,1.186,2.575,100.3909,0.297,1.286,63.01,0,109.6,13.61,1.05,262.5
"2010-02-07 01:03:30",1659286,0.587,295.4,3.318,0.037,1.414,100.3861,0.285,1.347,62.51,0,109.6,13.65,1.04,257.4
"2010-02-07 01:04:00",1659287,0.825,286.2,3.848,0.791,2.218,100.3773,0.262,1.375,62.53,0,109.6,13.61,1.02,248.2
"2010-02-07 01:04:30",1659288,2.968,292.9,4.43,0.572,6.446,100.3739,0.254,1.595,62.65,0,109.6,13.61,1.01,254.9
"2010-02-07 01:05:00",1659289,2.755,289.5,6.7,0.82,6.217,100.3751,0.257,1.54,62.51,0,109.6,13.61,1.01,251.5
"2010-02-07 01:05:30",1659290,0.714,274.9,2.02,0.028,1.295,100.3753,0.257,1.276,62.38,0,109.6,13.64,1.01,236.9
"2010-02-07 01:06:00",1659291,0.547,266.9,4.897,0.063,0.763,100.3762,0.26,1.281,62.57,0,109.6,13.65,1.01,228.9
"2010-02-07 01:06:30",1659292,1.64,245.5,10.49,1.254,3.188,100.3782,0.265,1.444,63.08,0,109.5,13.61,1.02,207.5
"2010-02-07 01:07:00",1659293,0.733,223.2,3.243,0.048,1.237,100.3677,0.238,1.372,63.46,0,109.5,13.65,0.99,185.2
"2010-02-07 01:07:30",1659294,0.722,220.2,1.056,0.035,1.2,100.3609,0.221,1.275,63.86,0,109.5,13.65,0.97,182.2
"2010-02-07 01:08:00",1659295,1.996,224.6,5.953,1.287,4.223,100.351,0.195,1.468,64.5,0,109.5,13.61,0.95,186.6
"2010-02-07 01:08:30",1659296,2.815,223.9,5.148,0.956,5.973,100.3536,0.202,1.553,64.91,0,109.5,13.62,0.95,185.9
"2010-02-07 01:09:00",1659297,2.13,217.5,5.74,1.244,4.923,100.3567,0.21,1.49,65.08,0,109.5,13.62,0.96,179.5
"2010-02-07 01:09:30",1659298,0.817,206.6,3.172,0.037,1.708,100.355,0.206,1.248,64.96,0,109.5,13.65,0.96,168.6
"2010-02-07 01:10:00",1659299,0.892,198.6,2.195,0.031,1.455,100.359,0.216,1.266,65.01,0,109.5,13.65,0.97,160.6
"2010-02-07 01:10:30",1659300,1.247,201.5,3.611,0.867,1.998,100.3593,0.216,1.338,65.27,0,109.5,13.62,0.97,163.5
"2010-02-07 01:11:00",1659301,2.08,207.7,6.897,1.288,4.158,100.3579,0.213,1.302,65.39,0,109.5,13.62,0.97,169.7
"2010-02-07 01:11:30",1659302,1.733,205.6,6.315,1.213,3.588,100.3505,0.194,1.269,65.52,0,109.5,13.62,0.95,167.6
"2010-02-07 01:12:00",1659303,3.011,214,5.412,0.78,6.424,100.344,0.178,1.464,65.84,0,109.4,13.62,0.93,176.0
"2010-02-07 01:12:30",1659304,2.58,217.1,5.64,1.071,5.874,100.3349,0.154,1.454,65.87,0,109.5,13.62,0.91,179.1
"2010-02-07 01:13:00",1659305,1.369,216.4,4.018,1.126,2.969,100.3327,0.149,1.271,65.73,0,109.5,13.62,0.90,178.4
"2010-02-07 01:13:30",1659306,0.584,216.7,1.451,0.043,1.299,100.3341,0.152,1.221,65.75,0,109.5,13.65,0.90,178.7
"2010-02-07 01:14:00",1659307,0.555,225.3,2.419,0.047,1.19,100.3333,0.15,1.218,65.79,0,109.5,13.65,0.90,187.3
"2010-02-07 01:14:30",1659308,1.622,233.8,6.962,1.239,3.734,100.3347,0.154,1.297,65.9,0,109.5,13.61,0.91,195.8
"2010-02-07 01:15:00",1659309,1.224,225.8,5.213,1.16,3.529,100.3372,0.16,1.372,66.06,0,109.5,13.61,0.91,187.8
"2010-02-07 01:15:30",1659310,0.484,219.2,1.496,0.033,1.952,100.3384,0.163,1.215,65.96,0,109.5,13.65,0.92,181.2
"2010-02-07 01:16:00",1659311,1.795,227.1,7.929,1.262,4.706,100.3384,0.163,1.438,66.21,0,109.5,13.62,0.92,189.1
"2010-02-07 01:16:30",1659312,2.14,232.6,6.418,1.105,5.735,100.3375,0.161,1.483,66.23,0,109.5,13.62,0.91,194.6
"2010-02-07 01:17:00",1659313,0.518,227.6,2.489,0.632,1.923,100.3398,0.167,1.288,66.06,0,109.5,13.62,0.92,189.6
"2010-02-07 01:17:30",1659314,0.304,230.3,1.834,0.022,1.044,100.3384,0.163,1.185,65.96,0,109.5,13.65,0.92,192.3
"2010-02-07 01:18:00",1659315,0.345,230.5,1.501,0.029,0.901,100.3293,0.14,1.174,65.97,0,109.5,13.65,0.89,192.5
"2010-02-07 01:18:30",1659316,0.469,233.7,2.51,0.458,1.071,100.3183,0.112,1.186,66.02,0,109.5,13.62,0.86,195.7
"2010-02-07 01:19:00",1659317,0.954,236.4,5.112,1.056,2.845,100.3086,0.087,1.322,66.25,0,109.5,13.62,0.84,198.4
"2010-02-07 01:19:30",1659318,0.988,240.6,2.743,1.096,2.701,100.3061,0.081,1.186,66.19,0,109.5,13.62,0.83,202.6
"2010-02-07 01:20:00",1659319,1.198,244.2,4.889,1.192,3.228,100.3058,0.08,1.19,66.3,0,109.5,13.63,0.83,206.2
"2010-02-07 01:20:30",1659320,1.835,242.2,5.536,1.187,5.052,100.3058,0.08,1.406,66.62,0,109.5,13.63,0.83,204.2
"2010-02-07 01:21:00",1659321,1.489,235,8.58,1.216,4.295,100.3058,0.08,1.308,66.59,0,109.5,13.63,0.83,197.0
"2010-02-07 01:21:30",1659322,1.483,231.3,4.912,1.183,3.895,100.3058,0.08,1.332,66.64,0,109.5,13.62,0.83,193.3
"2010-02-07 01:22:00",1659323,0.217,227,2.582,0.035,1.132,100.3058,0.08,1.159,66.48,0,109.5,13.66,0.83,189.0
"2010-02-07 01:22:30",1659324,0.077,232.4,3.703,0.038,1.048,100.3058,0.08,1.153,66.53,0,109.5,13.66,0.83,194.4
"2010-02-07 01:23:00",1659325,0.05,223,8.47,0.036,1.305,100.3058,0.08,1.147,66.55,0,109.5,13.66,0.83,185.0
"2010-02-07 01:23:30",1659326,0.103,207.7,2.162,0.03,1.432,100.3058,0.08,1.148,66.58,0,109.5,13.66,0.83,169.7
"2010-02-07 01:24:00",1659327,0.953,214.8,12.44,1.288,3.391,100.3055,0.079,1.18,66.63,0,109.5,13.63,0.83,176.8
"2010-02-07 01:24:30",1659328,0.848,227.5,12.55,1.235,3.899,100.3033,0.074,1.292,66.76,0,109.5,13.64,0.83,189.5
"2010-02-07 01:25:00",1659329,-0.113,169.1,50.3,0,2.085,100.2934,0.048,1.129,66.62,0,109.5,13.67,0.80,131.1
"2010-02-07 01:25:30",1659330,0.058,286.3,30.74,0.64,1.914,100.2832,0.022,1.158,66.62,0,109.5,13.64,0.77,248.3
"2010-02-07 01:26:00",1659331,1.733,342.8,26.14,1.112,5.049,100.2741,-0.001,1.37,66.75,0,109.5,13.64,0.75,304.8
"2010-02-07 01:26:30",1659332,0.455,335.6,12.81,0.993,2.849,100.2718,-0.007,1.176,66.52,0,109.5,13.64,0.75,297.6
"2010-02-07 01:27:00",1659333,-0.02,325.1,7.415,0.041,1.184,100.2718,-0.007,1.11,66.4,0,109.5,13.67,0.75,287.1
"2010-02-07 01:27:30",1659334,0.745,316.8,8.9,1.164,1.995,100.2718,-0.007,1.11,66.37,0,109.5,13.64,0.75,278.8
"2010-02-07 01:28:00",1659335,0.534,329.9,9,1.083,2.392,100.2721,-0.006,1.259,66.5,0,109.5,13.64,0.75,291.9
"2010-02-07 01:28:30",1659336,0.621,325.4,5.397,1.067,1.545,100.2718,-0.007,1.086,66.41,0,109.5,13.64,0.75,287.4
"2010-02-07 01:29:00",1659337,-0.064,306.4,10.06,0.037,0.716,100.2721,-0.006,1.086,66.74,0,109.5,13.68,0.75,268.4
"2010-02-07 01:29:30",1659338,0.024,285.6,6.307,0.048,1.148,100.2727,-0.004,1.073,67.05,0,109.5,13.67,0.75,247.6
"2010-02-07 01:30:00",1659339,0.913,289.3,9.85,1.247,2.891,100.2727,-0.004,1.077,67.3,0,109.5,13.64,0.75,251.3
"2010-02-07 01:30:30",1659340,0.661,291.7,6.363,1.034,3.023,100.2749,0.001,1.241,67.61,0,109.5,13.64,0.75,253.7
"2010-02-07 01:31:00",1659341,0.98,274.9,8.94,1.211,3.433,100.2956,0.054,1.082,67.56,0,109.5,13.64,0.81,236.9
"2010-02-07 01:31:30",1659342,1.165,262.3,6.915,1.205,4.016,100.3067,0.082,1.227,67.78,0,109.5,13.64,0.83,224.3
"2010-02-07 01:32:00",1659343,1.09,245.3,7.223,1.217,3.373,100.3064,0.082,1.122,67.7,0,109.5,13.64,0.83,207.3
"2010-02-07 01:32:30",1659344,1.206,233.3,5.577,1.25,3.796,100.3064,0.082,1.278,67.89,0,109.5,13.64,0.83,195.3
"2010-02-07 01:33:00",1659345,1.225,216.8,8.06,1.258,3.009,100.3072,0.084,1.152,67.73,0,109.5,13.64,0.84,178.8
"2010-02-07 01:33:30",1659346,0.799,206.7,6.464,1.142,3.367,100.3072,0.084,1.255,67.79,0,109.5,13.64,0.84,168.7
"2010-02-07 01:34:00",1659347,0.1,199.9,4.57,0.025,1.254,100.3095,0.09,1.097,67.51,0,109.5,13.67,0.84,161.9
"2010-02-07 01:34:30",1659348,0.115,203.9,2.567,0.01,0.633,100.3013,0.069,1.094,67.4,0,109.5,13.67,0.82,165.9
"2010-02-07 01:35:00",1659349,0.077,214.8,10.88,0.037,0.87,100.2803,0.015,1.083,67.33,0,109.5,13.68,0.77,176.8
"2010-02-07 01:35:30",1659350,1.046,248.4,16.31,1.21,3.263,100.2812,0.017,1.222,67.46,0,109.5,13.65,0.77,210.4
"2010-02-07 01:36:00",1659351,0.549,285.2,20.06,1.058,3.202,100.2863,0.03,1.208,67.49,0,109.5,13.65,0.78,247.2
"2010-02-07 01:36:30",1659352,0.628,312.2,10.62,1.085,3.297,100.2889,0.037,1.202,67.51,0,109.5,13.65,0.79,274.2
"2010-02-07 01:37:00",1659353,0.598,222.1,43.54,1.098,2.294,100.2696,-0.012,1.049,67.38,0,109.5,13.65,0.74,184.1
"2010-02-07 01:37:30",1659354,0.99,192.5,34.81,1.195,3.04,100.2554,-0.048,1.176,67.56,0,109.5,13.65,0.70,154.5
"2010-02-07 01:38:00",1659355,0.035,178.4,15.52,0.048,1.024,100.2583,-0.041,1.026,67.45,0,109.5,13.68,0.71,140.4
"2010-02-07 01:38:30",1659356,0.642,165.6,6.896,1.045,2.589,100.2608,-0.035,1.166,67.65,0,109.5,13.65,0.72,127.6
"2010-02-07 01:39:00",1659357,1.086,153.8,8.92,1.044,2.158,100.2447,-0.076,1.015,67.55,0,109.5,13.65,0.68,115.8
"2010-02-07 01:39:30",1659358,0.418,140.9,7.083,0.149,1.168,100.2317,-0.109,0.992,67.66,0,109.5,13.68,0.64,102.9
"2010-02-07 01:40:00",1659359,0.187,142.2,5.878,0.046,1.522,100.2288,-0.116,0.967,67.82,0,109.5,13.68,0.64,104.2
"2010-02-07 01:40:30",1659360,0.336,138.5,4.577,0.083,1.644,100.2294,-0.115,0.966,68.05,0,109.5,13.69,0.64,100.5
"2010-02-07 01:41:00",1659361,1.21,130,10.15,1.178,3.525,100.2288,-0.116,0.993,68.12,0,109.5,13.65,0.64,92.0
"2010-02-07 01:41:30",1659362,2.676,134.7,7.83,0.993,6.279,100.2303,-0.112,1.242,68.43,0,109.5,13.65,0.64,96.7
"2010-02-07 01:42:00",1659363,2.274,137.9,8.34,1.212,5.373,100.2314,-0.11,1.164,68.53,0,109.5,13.65,0.64,99.9
"2010-02-07 01:42:30",1659364,0.967,125,4.665,0.775,2.857,100.2323,-0.107,1.067,68.51,0,109.5,13.65,0.64,87.0
"2010-02-07 01:43:00",1659365,1.949,134.9,7.98,1.252,3.907,100.2249,-0.126,1.087,68.7,0,109.5,13.65,0.63,96.9
"2010-02-07 01:43:30",1659366,1.176,132.9,1.425,0.058,1.731,100.2068,-0.172,0.979,68.76,0,109.5,13.68,0.58,94.9
"2010-02-07 01:44:00",1659367,1.229,136.5,2.087,0.077,1.842,100.2028,-0.183,0.915,68.88,0,109.5,13.68,0.57,98.5
"2010-02-07 01:44:30",1659368,2.087,142.7,6.688,1.197,3.524,100.2017,-0.185,0.92,69.06,0,109.5,13.65,0.57,104.7
"2010-02-07 01:45:00",1659369,2.796,148.8,5.526,1.267,5.646,100.2005,-0.188,1.083,69.38,0,109.5,13.65,0.56,110.8
"2010-02-07 01:45:30",1659370,3.474,155.5,5.954,0.874,7.037,100.2008,-0.188,1.188,69.62,0,109.5,13.65,0.56,117.5
"2010-02-07 01:46:00",1659371,2.991,152.5,5.043,1.161,5.819,100.1997,-0.19,1.11,69.66,0,109.5,13.64,0.56,114.5
"2010-02-07 01:46:30",1659372,1.344,139.1,3.488,0.456,2.388,100.2031,-0.182,1.007,69.68,0,109.5,13.64,0.57,101.1
"2010-02-07 01:47:00",1659373,2.55,143.9,6.622,1.215,3.895,100.2031,-0.182,0.947,69.67,0,109.5,13.64,0.57,105.9
"2010-02-07 01:47:30",1659374,1.196,136.2,2.548,0.096,1.989,100.2042,-0.179,0.898,69.69,0,109.5,13.68,0.57,98.2